Location: San Gennaro Vesuviano
(40.8833°N, 14.5333°E)
Time: 09:53:42
(UTC+00:00)

Cosmos 389 Rocket - Pass Details

Date: 22 April 2021
Orbit: 441 x 472 km, 81.1° (Epoch: 10 May)

Event Time Altitude Azimuth Distance (km) Brightness Sun altitude
Rises 19:15:57 0° 197° (SSW) 2,466 6.0 -15.7°
Reaches altitude 10° 19:18:02 10° 201° (SSW) 1,603 5.1 -16.0°
Maximum altitude 19:21:29 58° 281° (WNW) 549 3.1 -16.6°
Drops below altitude 10° 19:25:01 10° 2° (N) 1,633 5.7 -17.1°
Sets 19:27:09 0° 6° (N) 2,518 6.6 -17.5°
